Weather History for KSJN - May, 2013

Change the Weather History Date:

Monday, May 13, 2013

  Actual Average (KSOW) Record (KSOW)
Temperature  
Mean Temperature 56 °F -  
Max Temperature 78 °F 71 °F 84 °F (1978)
Min Temperature 34 °F 52 °F 23 °F (2014)
Degree Days  
Heating Degree Days 9    
Growing Degree Days 6 (Base 50)    
Moisture  
Dew Point 25 °F    
Average Humidity 24    
Maximum Humidity 45    
Minimum Humidity 6    
Precipitation  
Precipitation 0.00 in - - ()
Sea Level Pressure  
Sea Level Pressure 30.03 in    
Wind  
Wind Speed 5 mph (SW)    
Max Wind Speed 14 mph    
Max Gust Speed 20 mph    
Visibility 10 miles    
Events Thunderstorm    
Averages and records for this station are not official NWS values.
T = Trace of Precipitation, MM = Missing Value Source: NWS Daily Summary

Daily Weather History Graph

Daily Weather History Graph

Search for Another Location

Airport or City:

Trip Planner

Search our weather history database for the weather conditions in past years. The results will help you decide how hot, cold, wet, or windy it might be!

Date:

Astronomy

May. 13, 2013 Rise Set
Actual Time 5:16 AM MST 7:11 PM MST
Civil Twilight 4:48 AM MST 7:39 PM MST
Nautical Twilight 4:14 AM MST 8:13 PM MST
Astronomical Twilight 3:39 AM MST 8:49 PM MST
Moon 8:05 AM MST (5/13) 10:23 PM MST (5/13)
Length of Visible Light 14h 51m
Length of Day
13h 55m
Waxing Crescent, 13% of the Moon is Illuminated
May 13
Waxing Crescent
May 17
First Quarter
May 24
Full
May 31
Last Quarter
Jun 8
New

Hourly Weather History & Observations

Time (MST) Temp. Windchill Dew Point Humidity Pressure Visibility Wind Dir Wind Speed Gust Speed Precip Events Conditions
12:54 AM 54.0 °F - 24.1 °F 31% 30.03 in 10.0 mi South 6.9 mph - N/A   Clear
1:54 AM 51.1 °F - 23.0 °F 33% 30.05 in 10.0 mi South 4.6 mph - N/A   Clear
2:54 AM 50.0 °F - 24.1 °F 36% 30.05 in 10.0 mi Calm Calm - N/A   Clear
3:54 AM 44.1 °F - 24.1 °F 45% 30.07 in 10.0 mi Calm Calm - N/A   Clear
4:54 AM 45.0 °F 41.8 °F 24.1 °F 44% 30.07 in 10.0 mi South 5.8 mph - N/A   Clear
5:54 AM 48.0 °F - 24.1 °F 39% 30.08 in 10.0 mi South 3.5 mph - N/A   Clear
6:54 AM 52.0 °F - 26.1 °F 37% 30.11 in 10.0 mi Calm Calm - N/A   Clear
7:54 AM 59.0 °F - 26.1 °F 28% 30.11 in 10.0 mi Calm Calm - N/A   Clear
8:54 AM 68.0 °F - 27.0 °F 21% 30.08 in 10.0 mi Calm Calm - N/A   Clear
9:54 AM 72.0 °F - 28.0 °F 20% 30.06 in 10.0 mi NNW 5.8 mph - N/A   Clear
10:54 AM 77.0 °F - 28.0 °F 17% 30.04 in 10.0 mi NNE 8.1 mph - N/A   Clear
11:54 AM 79.0 °F - 25.0 °F 14% 30.02 in 10.0 mi Variable 6.9 mph 19.6 mph N/A   Clear
1:54 PM 81.0 °F - 24.1 °F 12% 29.97 in 10.0 mi NE 13.8 mph 18.4 mph N/A   Partly Cloudy
2:54 PM 82.0 °F - 24.1 °F 12% 29.95 in 10.0 mi Variable 5.8 mph - N/A   Scattered Clouds
3:54 PM 81.0 °F - 23.0 °F 12% 29.95 in 10.0 mi West 6.9 mph - N/A   Partly Cloudy
4:54 PM 80.6 °F - 23.0 °F 12% 30.15 in 10.0 mi WSW 4.6 mph - N/A   Clear
5:52 PM 77.0 °F - 24.8 °F 14% 30.14 in 10.0 mi WSW 11.5 mph - N/A Thunderstorm Partly Cloudy
5:54 PM 77.0 °F - 25.0 °F 15% 29.93 in 10.0 mi West 9.2 mph - N/A Thunderstorm Partly Cloudy
6:11 PM 75.2 °F - 26.6 °F 17% 30.14 in 10.0 mi WSW 10.4 mph - N/A   Clear
6:54 PM 75.0 °F - 30.0 °F 19% 29.94 in 10.0 mi Calm Calm - N/A   Scattered Clouds
7:54 PM 70.0 °F - 26.1 °F 19% 29.94 in 10.0 mi WNW 4.6 mph - N/A   Clear
8:54 PM 66.9 °F - 28.0 °F 23% 29.94 in 10.0 mi Calm Calm - N/A   Clear
9:54 PM 60.1 °F - 27.0 °F 28% 29.95 in 10.0 mi WSW 3.5 mph - N/A   Clear
10:54 PM 59.0 °F - 28.0 °F 31% 29.94 in 10.0 mi South 5.8 mph - N/A   Clear
11:54 PM 57.0 °F - 28.9 °F 34% 29.93 in 10.0 mi South 5.8 mph - N/A   Clear